Satellite: MET-3/5
Catalog number: 21655
Epoch time:      10118.87644368
Element set:     798
Inclination:      082.5596 deg
RA of node:       343.4815 deg
Eccentricity:    0.0014785
Arg of perigee:   109.4436 deg
Mean anomaly:     250.8249 deg
Mean motion:   13.17024998 rev/day
Decay rate:        5.1e-07 rev/day^2
Epoch rev:           89918
Checksum:              349

Satellite: MET-2/21
Catalog number: 22782
Epoch time:      10119.33525365
Element set:     761
Inclination:      082.5437 deg
RA of node:       291.2016 deg
Eccentricity:    0.0022542
Arg of perigee:   175.8827 deg
Mean anomaly:     184.2523 deg
Mean motion:   13.83643744 rev/day
Decay rate:        5.0e-08 rev/day^2
Epoch rev:           84132
Checksum:              290

Satellite: OKEAN-4
Catalog number: 23317
Epoch time:      10119.39811288
Element set:     217
Inclination:      082.5425 deg
RA of node:       039.3955 deg
Eccentricity:    0.0023727
Arg of perigee:   045.7862 deg
Mean anomaly:     314.5312 deg
Mean motion:   14.82805680 rev/day
Decay rate:       1.77e-06 rev/day^2
Epoch rev:           83922
Checksum:              305

Satellite: NOAA-14
Catalog number: 23455
Epoch time:      10119.38047801
Element set:      39
Inclination:      098.8784 deg
RA of node:       200.4597 deg
Eccentricity:    0.0009778
Arg of perigee:   019.6320 deg
Mean anomaly:     340.5226 deg
Mean motion:   14.13784644 rev/day
Decay rate:        1.7e-07 rev/day^2
Epoch rev:           79060
Checksum:              307

Satellite: NOAA-15
Catalog number: 25338
Epoch time:      10119.20794469
Element set:     359
Inclination:      098.6154 deg
RA of node:       107.0190 deg
Eccentricity:    0.0009920
Arg of perigee:   213.4132 deg
Mean anomaly:     146.6430 deg
Mean motion:   14.24821733 rev/day
Decay rate:       1.84e-06 rev/day^2
Epoch rev:           62177
Checksum:              289

Satellite: RESURS
Catalog number: 25394
Epoch time:      10118.60732379
Element set:     489
Inclination:      098.3079 deg
RA of node:       139.3802 deg
Eccentricity:    0.0002079
Arg of perigee:   035.5618 deg
Mean anomaly:     324.5707 deg
Mean motion:   14.24199113 rev/day
Decay rate:       -1.5e-07 rev/day^2
Epoch rev:           61329
Checksum:              301

Satellite: FENGYUN1
Catalog number: 25730
Epoch time:      10119.84837518
Element set:      30
Inclination:      098.7846 deg
RA of node:       086.0638 deg
Eccentricity:    0.0025020
Arg of perigee:   045.1723 deg
Mean anomaly:     315.1432 deg
Mean motion:   14.08224248 rev/day
Decay rate:        1.7e-07 rev/day^2
Epoch rev:           56488
Checksum:              284

Satellite: OKEAN-0
Catalog number: 25860
Epoch time:      10119.39209475
Element set:     978
Inclination:      097.8283 deg
RA of node:       093.7604 deg
Eccentricity:    0.0000596
Arg of perigee:   092.3205 deg
Mean anomaly:     267.8068 deg
Mean motion:   14.73634858 rev/day
Decay rate:        9.5e-07 rev/day^2
Epoch rev:           57971
Checksum:              343

Satellite: NOAA-16
Catalog number: 26536
Epoch time:      10119.42273109
Element set:     836
Inclination:      099.1715 deg
RA of node:       135.7386 deg
Eccentricity:    0.0011348
Arg of perigee:   111.7840 deg
Mean anomaly:     248.4526 deg
Mean motion:   14.12554959 rev/day
Decay rate:      -2.01e-06 rev/day^2
Epoch rev:           49494
Checksum:              310

Satellite: NOAA-17
Catalog number: 27453
Epoch time:      10119.37837184
Element set:     840
Inclination:      098.4346 deg
RA of node:       171.7762 deg
Eccentricity:    0.0010737
Arg of perigee:   281.1411 deg
Mean anomaly:     078.8567 deg
Mean motion:   14.24153310 rev/day
Decay rate:       2.22e-06 rev/day^2
Epoch rev:           40775
Checksum:              299

Satellite: NOAA-18
Catalog number: 28654
Epoch time:      10119.38403439
Element set:     324
Inclination:      098.9466 deg
RA of node:       065.7968 deg
Eccentricity:    0.0014032
Arg of perigee:   187.7163 deg
Mean anomaly:     172.3787 deg
Mean motion:   14.11351101 rev/day
Decay rate:        6.9e-07 rev/day^2
Epoch rev:           25455
Checksum:              315

Satellite: NOAA-19
Catalog number: 33591
Epoch time:      10119.36147460
Element set:     522
Inclination:      098.7859 deg
RA of node:       062.5277 deg
Eccentricity:    0.0015189
Arg of perigee:   068.6763 deg
Mean anomaly:     291.6037 deg
Mean motion:   14.11046103 rev/day
Decay rate:      -1.77e-06 rev/day^2
Epoch rev:            6302
Checksum:              304

/EX
SB KEPS @ AMSAT  $ORB10119.M
Orbital Elements  10119.MISC

HR AMSAT ORBITAL ELEMENTS FOR MANNED AND MISCELLANEOUS SATELLITES
FROM WA5QGD FORT WORTH,TX April 29, 2010
Send Subscribe/unsubscribe to KEPS at http://www.amsat.org/mailman/listinfo/kep
BID: ORB10119.M
TO ALL RADIO AMATEURS BT

Satellite: HUBBLE
Catalog number: 20580
Epoch time:      10119.57451948
Element set:     557
Inclination:      028.4692 deg
RA of node:       197.2116 deg
Eccentricity:    0.0003291
Arg of perigee:   049.1055 deg
Mean anomaly:     310.9857 deg
Mean motion:   15.00960945 rev/day
Decay rate:       5.08e-06 rev/day^2
Epoch rev:           89744
Checksum:              310

